Regional Weather Roundup
Issued by NWS

Home | Current Version | Previous Version | Text Only | Print | Product List | Glossary Off
Versions: 1 2 3 4 5 6 7 8 9 10 11 12 13 14 15 16 17 18 19 20 21 22 23 24 25 26 27 28 29 30 31 32 33 34 35 36 37 38 39 40 41 42 43 44 45 46 47 48 49 50

115
ASUS43 KLOT 022103
RWRIL

ILLINOIS REGIONAL WEATHER ROUNDUP
NATIONAL WEATHER SERVICE CHICAGO/ROMEOVILLE IL
400 PM CDT MON MAY 02 2016

NOTE: "FAIR" INDICATES FEW OR NO CLOUDS BELOW 12,000 FEET WITH NO
SIGNIFICANT WEATHER AND/OR OBSTRUCTIONS TO VISIBILITY.

* THESE STATIONS ARE NOT UNDER NWS QUALITY CONTROL. THEY ALSO MAY NOT
  REPORT WEATHER SUCH AS PRECIPITATION OR FOG.

ILZ001-002-007-009-015-016-024-022200-
NORTHWEST ILLINOIS

CITY           SKY/WX    TMP DP  RH WIND       PRES   REMARKS
MOLINE         CLOUDY    60  40  47 NE8       30.03F
STERLING*      CLOUDY    59  39  47 NE5       30.03F
$$

ILZ003-004-008-010-011-017-018-022200-
NORTH CENTRAL ILLINOIS

CITY           SKY/WX    TMP DP  RH WIND       PRES   REMARKS
ROCKFORD       CLOUDY    62  37  39 N9        30.05F
FREEPORT*      CLOUDY    58  39  50 N5        30.05F
DE KALB*       PTSUNNY   60  39  44 NE13      30.02F
$$

ILZ005-006-012>014-019>023-022200-
NORTHEAST ILLINOIS

CITY           SKY/WX    TMP DP  RH WIND       PRES   REMARKS
CHICAGO-OHARE  MOSUNNY   57  33  40 NE14      30.03F
CHICAGO-MIDWAY MOSUNNY   56  34  43 NE16      30.03F
AURORA         PTSUNNY   60  37  42 NE14      30.02F
LANSING*       SUNNY     54  40  59 NE13      30.03F
WAUKEGAN       SUNNY     57  37  47 NE13      30.04F
DUPAGE AIRPORT SUNNY     59  33  37 NE17G28   30.02F
WHEELING       SUNNY     56  35  45 NE14      30.05F
NORTHERLY ISL    N/A     51  37  58 N10         N/A
NORTHERLY ISL    N/A     51  37  58 N10         N/A
$$

LMZ740>746-022200-
SOUTHERN LAKE MICHIGAN

STATION/POSITION SKY/WX   TEMP    WIND        PRES    VSBY  WAVE
                          AIR SEA DIR/SP/G                  HT/PER
                          (F)     (DEG/KT/KT) (MB)    (MI)  (FT/S)
SOUTHERN BUOY              42 41  310/  2/  4 1018.0          1/ 3
HARRISON CRIB              46      10/ 12/ 13   N/A
BURNHAM HARBOR             51     360/  8/ 13   N/A
CALUMET HARBOR             47     350/ 12/ 16 1017.1F
BURNS HARBOR               45      10/ 10/ 12 1017.6F
MICHIGAN CITY              44     360/  7/  8   N/A
ST. JOSEPH                 46 48                N/A           2/ 4
$$

ILZ025>027-034>036-040-047-049-050-058-095>099-022200-
WEST-CENTRAL ILLINOIS

CITY           SKY/WX    TMP DP  RH WIND       PRES   REMARKS
QUINCY         CLOUDY    53  47  79 N7        30.05S
MACOMB*        CLOUDY    54  45  72 N3        30.07S
$$

ILZ028>032-037-038-041>044-048-051>054-059>061-022200-
CENTRAL ILLINOIS

CITY           SKY/WX    TMP DP  RH WIND       PRES   REMARKS
BLOOMINGTON    CLOUDY    57  46  66 NE9       30.01F
DECATUR        CLOUDY    56  47  71 N8        30.01F
PEORIA         CLOUDY    58  44  60 CALM      30.02F
SPRINGFIELD    CLOUDY    57  47  69 NE7       30.03F
TAYLORVILLE    NOT AVBL
$$

ILZ033-039-045-046-055>057-062-063-022200-
EAST-CENTRAL ILLINOIS

CITY           SKY/WX    TMP DP  RH WIND       PRES   REMARKS
CHAMPAIGN      CLOUDY    56  47  71 N7        29.99F
MATTOON        CLOUDY    56  48  74 NW9       29.98F
$$

ILZ079-100>102-022200-
SOUTHWEST ILLINOIS

CITY           SKY/WX    TMP DP  RH WIND       PRES   REMARKS
BELLEVILLE     PTSUNNY   56  50  81 VRB3      30.02S
CAHOKIA*       CLOUDY    57  48  72 NW8       30.03F
SPARTA*        CLOUDY    56  48  73 NW5       30.03F
$$

ILZ064>066-069>071-074>076-080>082-084>086-088>090-092>094-022200-
SOUTH-CENTRAL ILLINOIS

CITY           SKY/WX    TMP DP  RH WIND       PRES   REMARKS
CARBONDALE     CLOUDY    60  47  61 NW10      30.01F
MARION         CLOUDY    61  50  67 NW12      30.01S
MT. VERNON     CLOUDY    55  46  71 NW5       30.02S
SALEM*         CLOUDY    58  50  74 NW8       30.01S
$$

ILZ067-068-072-073-078-083-087-091-022200-
SOUTHEAST ILLINOIS

CITY           SKY/WX    TMP DP  RH WIND       PRES   REMARKS
LAWRENCEVILLE  CLOUDY    58  49  72 NW7       29.98F
FLORA*         CLOUDY    59  49  70 NW9       30.00F
HARRISBURG*    CLOUDY    60  52  73 NW7       30.00S
ROBINSON*      CLOUDY    54  50  86 NW9       30.00F
$$

ABBREVIATIONS USED IN REMARKS
   TC - TEMPERATURE IN CELSIUS
  WCI - WIND CHILL INDEX
   HX - HEAT INDEX
  VSB - VISIBILITY
$$





USA.gov is the U.S. government's official web portal to all federal, state and local government web resources and services.